TimeCDT,TemperatureF,Dew PointF,Humidity,Sea Level PressureIn,VisibilityMPH,Wind Direction,Wind SpeedMPH,Gust SpeedMPH,PrecipitationIn,Events,Conditions,WindDirDegrees,DateUTC
12:52 AM,57.9,52.0,81,29.99,10.0,NNW,3.5,-,N/A,,Overcast,330,2013-05-11 05:52:00
1:52 AM,57.0,51.1,81,29.99,10.0,NNW,9.2,-,N/A,,Overcast,340,2013-05-11 06:52:00
2:52 AM,55.9,51.1,84,29.98,10.0,NNW,10.4,-,N/A,,Overcast,340,2013-05-11 07:52:00
2:59 AM,55.4,51.8,88,29.99,10.0,NNW,8.1,-,N/A,,Overcast,340,2013-05-11 07:59:00
3:52 AM,55.0,50.0,83,29.99,10.0,NNW,6.9,-,N/A,,Overcast,340,2013-05-11 08:52:00
4:02 AM,55.4,50.0,82,29.99,10.0,NNW,4.6,-,N/A,,Overcast,330,2013-05-11 09:02:00
4:19 AM,55.4,51.8,88,29.99,10.0,NW,5.8,-,N/A,,Overcast,320,2013-05-11 09:19:00
4:52 AM,55.0,51.1,86,29.99,10.0,NNW,8.1,-,N/A,,Overcast,340,2013-05-11 09:52:00
5:42 AM,55.4,50.0,82,29.99,10.0,NNW,6.9,-,N/A,,Overcast,330,2013-05-11 10:42:00
5:52 AM,55.0,50.0,83,29.99,10.0,NNW,8.1,-,N/A,,Overcast,330,2013-05-11 10:52:00
6:52 AM,55.0,50.0,83,30.01,10.0,NW,5.8,-,N/A,,Overcast,320,2013-05-11 11:52:00
7:52 AM,55.9,51.1,84,30.02,10.0,NW,8.1,-,N/A,,Overcast,320,2013-05-11 12:52:00
8:52 AM,57.0,50.0,77,30.03,10.0,WNW,9.2,-,N/A,,Overcast,300,2013-05-11 13:52:00
9:50 AM,60.8,50.0,68,30.02,10.0,NNW,12.7,17.3,N/A,,Scattered Clouds,340,2013-05-11 14:50:00
9:52 AM,61.0,50.0,67,30.02,10.0,NNW,11.5,-,N/A,,Scattered Clouds,340,2013-05-11 14:52:00
10:50 AM,62.6,51.8,68,30.02,10.0,WNW,10.4,-,N/A,,Mostly Cloudy,300,2013-05-11 15:50:00
10:52 AM,63.0,51.1,65,30.02,10.0,WNW,9.2,-,N/A,,Mostly Cloudy,300,2013-05-11 15:52:00
11:00 AM,62.6,51.8,68,30.02,10.0,WNW,8.1,-,N/A,,Mostly Cloudy,300,2013-05-11 16:00:00
11:52 AM,66.0,52.0,60,30.02,10.0,NW,4.6,-,N/A,,Partly Cloudy,320,2013-05-11 16:52:00
12:52 PM,69.1,53.1,57,30.00,10.0,NNW,8.1,-,N/A,,Partly Cloudy,330,2013-05-11 17:52:00
1:52 PM,70.0,52.0,53,29.99,10.0,NW,9.2,-,N/A,,Scattered Clouds,310,2013-05-11 18:52:00
2:52 PM,71.1,52.0,51,29.97,10.0,West,9.2,18.4,N/A,,Mostly Cloudy,280,2013-05-11 19:52:00
3:52 PM,66.9,52.0,59,29.97,10.0,NNW,12.7,24.2,0.00,Rain,Light Rain,330,2013-05-11 20:52:00
4:52 PM,69.1,46.0,44,29.99,10.0,NNW,13.8,21.9,0.00,,Partly Cloudy,330,2013-05-11 21:52:00
5:52 PM,68.0,39.9,36,30.00,10.0,NNW,12.7,25.3,N/A,,Clear,340,2013-05-11 22:52:00
6:52 PM,64.0,36.0,35,30.02,10.0,NNW,15.0,24.2,N/A,,Clear,340,2013-05-11 23:52:00
7:52 PM,60.1,37.0,42,30.06,10.0,NNW,12.7,21.9,N/A,,Clear,340,2013-05-12 00:52:00
8:52 PM,57.0,34.0,42,30.09,10.0,North,13.8,21.9,N/A,,Clear,350,2013-05-12 01:52:00
9:52 PM,53.1,37.0,55,30.12,10.0,North,6.9,-,N/A,,Clear,350,2013-05-12 02:52:00
10:52 PM,50.0,37.9,63,30.13,10.0,NNW,6.9,-,N/A,,Clear,340,2013-05-12 03:52:00
11:52 PM,50.0,37.0,61,30.15,10.0,NNW,9.2,-,N/A,,Clear,340,2013-05-12 04:52:00